User: anonymous   Login
Location: Sungai Bunut
(2.6333°N, 113.7333°E)
Time: 03:34:05
(UTC+00:00)
Language:

Courier 1B - Orbit

View from above orbital plane
View from above orbital plane
View from above satellite
View from above satellite

Ground track
Ground track

The orbit data is extracted from the following two-line orbital elements,

1 00058U 60013A   24103.53583335  .00000128  00000-0  67453-4 0  9998
2 00058  28.3263 216.8386 0164864  99.5530 262.3685 13.46371705126753
Epoch (UTC): 12 April 2024 12:51:36
Eccentricity: 0.0164864
inclination: 28.3263°
perigee height: 962 km
apogee height: 1208 km
right ascension of ascending node: 216.8386°
argument of perigee: 99.5530°
revolutions per day: 13.46371705
mean anomaly at epoch: 262.3685°
orbit number at epoch: 12675

The dashed part of the orbit path shows where the satellite is in the earth's shadow,  

DLR